Location: Zagreb
(45.8000°N, 16.0000°E)
Time: 21:23:13
(UTC+01:00)

Vanguard 2 Rocket - Pass Details

Date: 27 January 2020
Orbit: 553 x 3327 km, 32.9° (Epoch: 24 February)

Event Time Altitude Azimuth Distance (km) Brightness Sun altitude
Exits shadow 06:38:45 - 244° (WSW) 2,907 9.1 -8.2°
Reaches altitude 10° 06:40:57 10° 230° (SW) 2,239 8.6 -7.8°
Maximum altitude 06:45:05 24° 176° (S) 1,831 8.8 -7.1°
Drops below altitude 10° 06:50:56 10° 126° (SE) 3,298 11.3 -6.1°
Sets 06:55:21 0° 115° (ESE) 4,790 13.4 -5.4°
